Regional Weather Roundup
Issued by NWS

Home | Current Version | Previous Version | Text Only | Print | Product List | Glossary Off
Versions: 1 2 3 4 5 6 7 8 9 10 11 12 13 14 15 16 17 18 19 20 21 22 23 24 25 26 27 28 29 30 31 32 33 34 35 36 37 38 39 40 41 42 43 44 45 46 47 48 49 50

000
ASUS43 KLOT 021112
RWRIL

ILLINOIS REGIONAL WEATHER ROUNDUP
NATIONAL WEATHER SERVICE CHICAGO/ROMEOVILLE IL
600 AM CDT THU JUL 02 2015

NOTE: "FAIR" INDICATES FEW OR NO CLOUDS BELOW 12,000 FEET WITH NO
SIGNIFICANT WEATHER AND/OR OBSTRUCTIONS TO VISIBILITY.

* THESE STATIONS ARE NOT UNDER NWS QUALITY CONTROL. THEY ALSO MAY NOT
  REPORT WEATHER SUCH AS PRECIPITATION OR FOG.

ILZ001-002-007-009-015-016-024-021200-
NORTHWEST ILLINOIS

CITY           SKY/WX    TMP DP  RH WIND       PRES   REMARKS
MOLINE         CLEAR     57  52  83 NE7       29.98R
STERLING*      CLEAR     52  48  87 NE5       29.99R
$$

ILZ003-004-008-010-011-017-018-021200-
NORTH CENTRAL ILLINOIS

CITY           SKY/WX    TMP DP  RH WIND       PRES   REMARKS
ROCKFORD       PTCLDY    51  47  86 N9        30.02R
$$

ILZ005-006-012>014-019>023-021200-
NORTHEAST ILLINOIS

CITY           SKY/WX    TMP DP  RH WIND       PRES   REMARKS
CHICAGO-OHARE  CLOUDY    55  52  89 NE10      29.97S
CHICAGO-MIDWAY CLOUDY    58  55  90 N7        29.96S
AURORA         CLOUDY    54  50  86 NE12      29.98S FOG
WAUKEGAN       CLEAR     51  50  96 N6        29.98F
DUPAGE AIRPORT CLOUDY    54  51  90 NE8       29.97R
WHEELING       CLOUDY    54  51  90 NE9       29.99F
NORTHERLY ISL    N/A     57  55  93 N13         N/A
$$

LMZ740>746-021200-
SOUTHERN LAKE MICHIGAN

STATION/POSITION SKY/WX   TEMP    WIND        PRES    VSBY  WAVE
                          AIR SEA DIR/SP/G                  HT/PER
                          (F)     (DEG/KT/KT) (MB)    (MI)  (FT/S)
HARRISON CRIB              56     360/ 14/ 16   N/A
BURNHAM HARBOR             58      20/  9/ 13   N/A
CALUMET HARBOR             57     360/  9/ 12   N/A
BURNS HARBOR               61      50/ 14/ 17 1014.9F
MICHIGAN CITY              58      30/ 16/ 18   N/A
MICHIGAN CITY 6N           59 64   80/ 14/ 17   N/A           3/ 5
ST. JOSEPH                 57 63                N/A           2/ 5
$$

ILZ025>027-034>036-040-047-049-050-058-095>099-021200-
WEST-CENTRAL ILLINOIS

CITY           SKY/WX    TMP DP  RH WIND       PRES   REMARKS
QUINCY         CLOUDY    64  58  80 NE10      29.91R
$$

ILZ028>032-037-038-041>044-048-051>054-059>061-021200-
CENTRAL ILLINOIS

CITY           SKY/WX    TMP DP  RH WIND       PRES   REMARKS
BLOOMINGTON    MOCLDY    56  55  96 NE10      29.95R FOG
DECATUR        CLOUDY    59  55  87 NE10      29.90F
PEORIA         PTCLDY    60  53  77 NE8       29.95R
SPRINGFIELD    CLOUDY    63  55  75 NE13      29.91R
TAYLORVILLE    NOT AVBL
$$

ILZ033-039-045-046-055>057-062-063-021200-
EAST-CENTRAL ILLINOIS

CITY           SKY/WX    TMP DP  RH WIND       PRES   REMARKS
CHAMPAIGN      PTCLDY    58  54  86 NE10      29.92S
MATTOON        CLOUDY    60  55  83 NE9       29.89R
$$

ILZ079-100>102-021200-
SOUTHWEST ILLINOIS

CITY           SKY/WX    TMP DP  RH WIND       PRES   REMARKS
BELLEVILLE     LGT RAIN  72  72 100 E3        29.83S
CAHOKIA*       LGT RAIN  72  70  93 CALM      29.84S
$$

ILZ064>066-069>071-074>076-080>082-084>086-088>090-092>094-021200-
SOUTH-CENTRAL ILLINOIS

CITY           SKY/WX    TMP DP  RH WIND       PRES   REMARKS
CARBONDALE     CLOUDY    71  68  90 W3        29.85R
MT. VERNON     CLOUDY    70  66  88 CALM      29.86R
$$

ILZ067-068-072-073-078-083-087-091-021200-
SOUTHEAST ILLINOIS

CITY           SKY/WX    TMP DP  RH WIND       PRES   REMARKS
LAWRENCEVILLE  CLOUDY    66  66 100 N6        29.87S FOG
$$

ABBREVIATIONS USED IN REMARKS
   TC - TEMPERATURE IN CELSIUS
  WCI - WIND CHILL INDEX
   HX - HEAT INDEX
  VSB - VISIBILITY
$$




USA.gov is the U.S. government's official web portal to all federal, state and local government web resources and services.